Location: Unspecified
(0.0000°N, 0.0000°E)
Time: 20:55:58
(UTC+00:00)

OV3-3 - Pass Details

Date: 02 October 2017
Orbit: 341 x 2257 km, 81.4° (Epoch: 23 October)

Event Time Altitude Azimuth Distance (km) Brightness Sun altitude
Rises 04:59:10 0° 201° (SSW) 2,605 9.6 -12.5°
Reaches altitude 10° 05:01:45 10° 215° (SW) 1,525 8.3 -11.9°
Maximum altitude 05:04:21 24° 272° (W) 834 6.6 -11.2°
Drops below altitude 10° 05:06:35 10° 329° (NNW) 1,300 7.9 -10.7°
Sets 05:08:36 0° 345° (NNW) 2,115 9.1 -10.2°
